Location: Moy Burn
(57.3833°N, 4.0667°W)
Time: 09:54:37
(UTC+00:00)

Cosmos 2082 Rocket - Pass Details

Date: 08 August 2020
Orbit: 835 x 852 km, 71.0° (Epoch: 18 September)

Event Time Altitude Azimuth Distance (km) Brightness Sun altitude
Rises 21:46:55 0° 200° (SSW) 3,405 5.0 -10.1°
Reaches altitude 10° 21:49:23 10° 197° (SSW) 2,471 4.3 -10.3°
Maximum altitude 21:54:58 62° 119° (ESE) 951 2.2 -10.7°
Drops below altitude 10° 22:00:34 10° 40° (NE) 2,474 4.8 -11.2°
Sets 22:03:02 0° 37° (NE) 3,410 5.6 -11.4°
